| time (UTC) | temp F | wind direction | speed knots | gust knots | rain 1hr in | rain 24hr in | rain mn in | humidity % | barometer mb |
| 20260504150647 | 69 | 279 | 1.7 | 6.1 | 0.00 | 0.00 | 0.00 | 40 | 1010.9 |
| 20260504150148 | 68 | 227 | 1.7 | 5.2 | 0.00 | 0.00 | 0.00 | 42 | 1011.0 |
| 20260504141146 | 64 | 187 | 0.9 | 5.2 | 0.00 | 0.00 | 0.00 | 45 | 1011.2 |
| 20260504140644 | 64 | 278 | 0.9 | 5.2 | 0.00 | 0.00 | 0.00 | 46 | 1011.3 |
| 20260504140143 | 64 | 198 | 1.7 | 6.1 | 0.00 | 0.00 | 0.00 | 46 | 1011.4 |
| 20260504130635 | 59 | 215 | 1.7 | 6.1 | 0.00 | 0.00 | 0.00 | 54 | 1011.8 |
| 20260504130135 | 59 | 174 | 1.7 | 7.8 | 0.00 | 0.00 | 0.00 | 54 | 1011.8 |
| 20260504120128 | 56 | 184 | 3.5 | 11.3 | 0.00 | 0.00 | 0.00 | 57 | 1012.0 |
| 20260504110624 | 53 | 203 | 1.7 | 7.0 | 0.00 | 0.00 | 0.00 | 60 | 1012.2 |
| 20260504110124 | 53 | 298 | 1.7 | 5.2 | 0.00 | 0.00 | 0.00 | 61 | 1012.3 |
| 20260504100116 | 54 | 195 | 0.0 | 3.5 | 0.00 | 0.00 | 0.00 | 60 | 1012.1 |
| 20260504090110 | 55 | 198 | 0.9 | 8.7 | 0.00 | 0.00 | 0.00 | 57 | 1012.3 |
| 20260504081557 | 54 | 210 | 1.7 | 5.2 | 0.00 | 0.00 | 0.00 | 55 | 1012.6 |
| 20260504081055 | 54 | 233 | 1.7 | 5.2 | 0.00 | 0.00 | 0.00 | 55 | 1012.5 |
| 20260504080555 | 54 | 248 | 1.7 | 6.1 | 0.00 | 0.00 | 0.00 | 55 | 1012.5 |
| 20260504050504 | 54 | 236 | 0.0 | 1.7 | 0.00 | 0.00 | 0.00 | 61 | 1012.7 |
| 20260504050001 | 54 | 203 | 0.0 | 1.7 | 0.00 | 0.00 | 0.00 | 59 | 1012.8 |
| 20260504045502 | 54 | 225 | 0.0 | 1.7 | 0.00 | 0.00 | 0.00 | 59 | 1012.7 |
| 20260504044959 | 54 | 215 | 0.0 | 0.0 | 0.00 | 0.00 | 0.00 | 59 | 1012.8 |
| 20260504044500 | 54 | 214 | 0.0 | 0.0 | 0.00 | 0.00 | 0.00 | 59 | 1012.7 |
| 20260504044000 | 54 | 212 | 0.0 | 0.0 | 0.00 | 0.00 | 0.00 | 58 | 1012.8 |
| 20260504042956 | 54 | 210 | 0.0 | 2.6 | 0.00 | 0.00 | 0.00 | 57 | 1012.7 |
| 20260504042457 | 55 | 238 | 0.0 | 0.9 | 0.00 | 0.00 | 0.00 | 56 | 1012.8 |
| 20260504041454 | 55 | 201 | 0.9 | 4.3 | 0.00 | 0.00 | 0.00 | 55 | 1012.7 |
| 20260504040954 | 55 | 273 | 0.9 | 3.5 | 0.00 | 0.00 | 0.00 | 54 | 1012.7 |
| 20260504040455 | 55 | 210 | 0.9 | 5.2 | 0.00 | 0.00 | 0.00 | 54 | 1012.7 |
| 20260504035954 | 55 | 273 | 0.9 | 5.2 | 0.00 | 0.00 | 0.00 | 54 | 1012.8 |
| 20260504035447 | 55 | 229 | 0.9 | 4.3 | 0.00 | 0.00 | 0.00 | 55 | 1012.8 |
| 20260504034946 | 55 | 207 | 0.0 | 1.7 | 0.00 | 0.00 | 0.00 | 56 | 1012.7 |
| 20260504034445 | 55 | 235 | 0.9 | 6.1 | 0.00 | 0.00 | 0.00 | 56 | 1012.8 |
| 20260504032941 | 56 | 221 | 0.9 | 3.5 | 0.00 | 0.00 | 0.00 | 55 | 1012.5 |
| 20260504032438 | 56 | 207 | 0.9 | 2.6 | 0.00 | 0.00 | 0.00 | 55 | 1012.5 |
| 20260504031438 | 56 | 204 | 0.9 | 2.6 | 0.00 | 0.00 | 0.00 | 55 | 1012.5 |
| 20260504030938 | 56 | 287 | 0.0 | 3.5 | 0.00 | 0.00 | 0.00 | 53 | 1012.5 |
| 20260504030438 | 56 | 217 | 0.9 | 3.5 | 0.00 | 0.00 | 0.00 | 52 | 1012.4 |
| 20260504025937 | 56 | 208 | 0.9 | 3.5 | 0.00 | 0.00 | 0.00 | 51 | 1012.4 |
| 20260504025436 | 57 | 212 | 0.9 | 3.5 | 0.00 | 0.00 | 0.00 | 49 | 1012.3 |
| 20260504024928 | 57 | 208 | 0.9 | 5.2 | 0.00 | 0.00 | 0.00 | 48 | 1012.3 |
| 20260504024426 | 57 | 228 | 0.9 | 5.2 | 0.00 | 0.00 | 0.00 | 47 | 1012.2 |
| 20260504023926 | 57 | 201 | 1.7 | 5.2 | 0.00 | 0.00 | 0.00 | 46 | 1012.2 |
| 20260504023428 | 57 | 238 | 0.9 | 5.2 | 0.00 | 0.00 | 0.00 | 44 | 1012.2 |
| 20260504022927 | 56 | 188 | 0.0 | 2.6 | 0.00 | 0.00 | 0.00 | 43 | 1012.2 |
| 20260504022428 | 56 | 226 | 0.0 | 1.7 | 0.00 | 0.00 | 0.00 | 44 | 1012.2 |
| 20260504021418 | 56 | 211 | 0.0 | 0.0 | 0.00 | 0.00 | 0.00 | 53 | 1012.2 |
| 20260504020919 | 56 | 211 | 0.0 | 0.0 | 0.00 | 0.00 | 0.00 | 47 | 1012.1 |
| 20260504020416 | 56 | 211 | 0.0 | 0.0 | 0.00 | 0.00 | 0.00 | 45 | 1012.0 |
| 20260504015406 | 57 | 231 | 0.0 | 0.0 | 0.00 | 0.00 | 0.00 | 51 | 1012.1 |
| 20260504014905 | 57 | 232 | 0.0 | 0.0 | 0.00 | 0.00 | 0.00 | 46 | 1012.0 |
| 20260504013901 | 58 | 232 | 0.0 | 0.0 | 0.00 | 0.00 | 0.00 | 40 | 1011.9 |
| 20260504013401 | 58 | 232 | 0.0 | 0.0 | 0.00 | 0.00 | 0.00 | 41 | 1011.9 |
| 20260504012858 | 58 | 232 | 0.0 | 0.0 | 0.00 | 0.00 | 0.00 | 38 | 1011.9 |
| 20260504012358 | 58 | 232 | 0.0 | 0.0 | 0.00 | 0.00 | 0.00 | 37 | 1011.9 |
| 20260504011859 | 58 | 263 | 0.0 | 0.0 | 0.00 | 0.00 | 0.00 | 38 | 1011.8 |
| 20260504011357 | 58 | 231 | 0.0 | 0.0 | 0.00 | 0.00 | 0.00 | 40 | 1011.8 |
| 20260504010355 | 59 | 232 | 0.0 | 0.9 | 0.00 | 0.00 | 0.00 | 35 | 1011.8 |
| 20260504005848 | 59 | 232 | 0.0 | 0.9 | 0.00 | 0.00 | 0.00 | 35 | 1011.8 |
| 20260504004845 | 60 | 194 | 0.0 | 2.6 | 0.00 | 0.00 | 0.00 | 33 | 1011.7 |
| 20260504004343 | 61 | 303 | 0.0 | 2.6 | 0.00 | 0.00 | 0.00 | 36 | 1011.6 |
| 20260504003341 | 61 | 302 | 0.0 | 3.5 | 0.00 | 0.00 | 0.00 | 32 | 1011.5 |
| 20260504002839 | 61 | 338 | 0.0 | 3.5 | 0.00 | 0.00 | 0.00 | 32 | 1011.5 |
| 20260504002339 | 61 | 305 | 0.0 | 3.5 | 0.00 | 0.00 | 0.00 | 32 | 1011.4 |
| 20260504001839 | 61 | 290 | 0.0 | 2.6 | 0.00 | 0.00 | 0.00 | 33 | 1011.4 |
| 20260504001337 | 61 | 332 | 0.0 | 2.6 | 0.00 | 0.00 | 0.00 | 31 | 1011.4 |
| 20260504000838 | 61 | 320 | 0.0 | 1.7 | 0.00 | 0.00 | 0.00 | 31 | 1011.4 |
| 20260503234832 | 62 | 250 | 0.0 | 4.3 | 0.00 | 0.00 | 0.00 | 30 | 1011.1 |
| 20260503234332 | 63 | 288 | 0.9 | 4.3 | 0.00 | 0.00 | 0.00 | 29 | 1011.1 |
| 20260503233327 | 64 | 296 | 1.7 | 7.0 | 0.00 | 0.00 | 0.00 | 28 | 1011.1 |
| 20260503232827 | 64 | 280 | 0.9 | 7.0 | 0.00 | 0.00 | 0.00 | 28 | 1011.0 |
| 20260503232327 | 64 | 208 | 0.9 | 5.2 | 0.00 | 0.00 | 0.00 | 28 | 1010.9 |
| 20260503230824 | 64 | 23 | 2.6 | 7.0 | 0.00 | 0.00 | 0.00 | 27 | 1010.9 |
| 20260503225823 | 64 | 339 | 1.7 | 7.8 | 0.00 | 0.00 | 0.00 | 27 | 1010.9 |
| 20260503225322 | 65 | 327 | 1.7 | 7.8 | 0.00 | 0.00 | 0.00 | 27 | 1010.9 |
| 20260503224825 | 64 | 280 | 2.6 | 8.7 | 0.00 | 0.00 | 0.00 | 27 | 1011.0 |
| 20260503224324 | 64 | 268 | 2.6 | 8.7 | 0.00 | 0.00 | 0.00 | 27 | 1011.1 |
| 20260503223824 | 65 | 354 | 1.7 | 5.2 | 0.00 | 0.00 | 0.00 | 27 | 1011.0 |
| 20260503223324 | 65 | 8 | 1.7 | 7.0 | 0.00 | 0.00 | 0.00 | 27 | 1011.0 |
| 20260503222320 | 65 | 249 | 1.7 | 7.0 | 0.00 | 0.00 | 0.00 | 27 | 1011.0 |
| 20260503221818 | 65 | 295 | 2.6 | 7.0 | 0.00 | 0.00 | 0.00 | 27 | 1011.1 |
| 20260503221318 | 65 | 255 | 1.7 | 7.0 | 0.00 | 0.00 | 0.00 | 26 | 1011.1 |
| 20260503220817 | 65 | 340 | 1.7 | 7.0 | 0.00 | 0.00 | 0.00 | 27 | 1011.1 |
| 20260503220317 | 64 | 341 | 2.6 | 9.6 | 0.00 | 0.00 | 0.00 | 27 | 1011.1 |
| 20260503215814 | 64 | 304 | 3.5 | 10.4 | 0.00 | 0.00 | 0.00 | 27 | 1011.1 |
| 20260503215312 | 64 | 37 | 2.6 | 10.4 | 0.00 | 0.00 | 0.00 | 27 | 1011.2 |
| 20260503214812 | 64 | 342 | 4.3 | 11.3 | 0.00 | 0.00 | 0.00 | 28 | 1011.3 |
| 20260503214313 | 63 | 330 | 5.2 | 12.2 | 0.00 | 0.00 | 0.00 | 27 | 1011.3 |
| 20260503213811 | 64 | 15 | 3.5 | 12.2 | 0.00 | 0.00 | 0.00 | 27 | 1011.3 |
| 20260503212806 | 64 | 263 | 3.5 | 13.0 | 0.00 | 0.00 | 0.00 | 27 | 1011.1 |
| 20260503212305 | 64 | 15 | 3.5 | 12.2 | 0.00 | 0.00 | 0.00 | 27 | 1011.2 |
| 20260503211803 | 64 | 288 | 3.5 | 12.2 | 0.00 | 0.00 | 0.00 | 28 | 1011.1 |
| 20260503211306 | 64 | 315 | 2.6 | 9.6 | 0.00 | 0.00 | 0.00 | 29 | 1011.1 |
| 20260503210805 | 63 | 339 | 3.5 | 9.6 | 0.00 | 0.00 | 0.00 | 29 | 1011.1 |
| 20260503210306 | 63 | 307 | 3.5 | 9.6 | 0.00 | 0.00 | 0.00 | 28 | 1011.3 |
| 20260503205800 | 64 | 327 | 2.6 | 8.7 | 0.00 | 0.00 | 0.00 | 28 | 1011.3 |
| 20260503205258 | 64 | 345 | 2.6 | 8.7 | 0.00 | 0.00 | 0.00 | 28 | 1011.3 |
| 20260503203800 | 63 | 20 | 3.5 | 12.2 | 0.00 | 0.00 | 0.00 | 28 | 1011.4 |
| 20260503203300 | 63 | 33 | 3.5 | 12.2 | 0.00 | 0.00 | 0.00 | 29 | 1011.4 |
| 20260503202753 | 62 | 334 | 4.3 | 12.2 | 0.00 | 0.00 | 0.00 | 30 | 1011.5 |
| 20260503202253 | 63 | 307 | 3.5 | 8.7 | 0.00 | 0.00 | 0.00 | 29 | 1011.6 |
| 20260503201755 | 62 | 15 | 5.2 | 12.2 | 0.00 | 0.00 | 0.00 | 29 | 1011.6 |
| 20260503201254 | 62 | 35 | 5.2 | 12.2 | 0.00 | 0.00 | 0.00 | 29 | 1011.8 |
| 20260503200753 | 63 | 69 | 3.5 | 11.3 | 0.00 | 0.00 | 0.00 | 28 | 1011.9 |
| 20260503200252 | 62 | 302 | 3.5 | 11.3 | 0.00 | 0.00 | 0.00 | 29 | 1011.8 |
| 20260503195748 | 62 | 328 | 3.5 | 11.3 | 0.00 | 0.00 | 0.00 | 30 | 1011.9 |
| 20260503195248 | 62 | 25 | 3.5 | 8.7 | 0.00 | 0.00 | 0.00 | 30 | 1011.8 |
| 20260503194748 | 62 | 348 | 4.3 | 13.9 | 0.00 | 0.00 | 0.00 | 30 | 1012.0 |
| 20260503194247 | 62 | 41 | 4.3 | 13.9 | 0.00 | 0.00 | 0.00 | 31 | 1012.1 |
| 20260503193745 | 62 | 316 | 3.5 | 11.3 | 0.00 | 0.00 | 0.00 | 31 | 1012.2 |
| 20260503193245 | 61 | 274 | 4.3 | 9.6 | 0.00 | 0.00 | 0.00 | 32 | 1012.2 |
| 20260503192740 | 61 | 246 | 5.2 | 13.9 | 0.00 | 0.00 | 0.00 | 32 | 1012.3 |
| 20260503191740 | 61 | 4 | 5.2 | 14.8 | 0.00 | 0.00 | 0.00 | 32 | 1012.4 |
| 20260503191240 | 61 | 114 | 5.2 | 13.9 | 0.00 | 0.00 | 0.00 | 32 | 1012.6 |
| 20260503190241 | 61 | 312 | 3.5 | 14.8 | 0.00 | 0.00 | 0.00 | 32 | 1012.7 |
| 20260503185733 | 60 | 270 | 4.3 | 9.6 | 0.00 | 0.00 | 0.00 | 33 | 1012.6 |
| 20260503185232 | 60 | 275 | 5.2 | 13.9 | 0.00 | 0.00 | 0.00 | 33 | 1012.7 |
| 20260503184733 | 61 | 127 | 5.2 | 13.9 | 0.00 | 0.00 | 0.00 | 33 | 1012.8 |
| 20260503184233 | 61 | 248 | 4.3 | 13.0 | 0.00 | 0.00 | 0.00 | 32 | 1013.0 |
| 20260503183232 | 60 | 239 | 3.5 | 11.3 | 0.00 | 0.00 | 0.00 | 33 | 1012.9 |
| 20260503182728 | 60 | 183 | 4.3 | 14.8 | 0.00 | 0.00 | 0.00 | 33 | 1013.0 |
| 20260503182227 | 59 | 160 | 5.2 | 14.8 | 0.00 | 0.00 | 0.00 | 33 | 1013.1 |
| 20260503181728 | 60 | 320 | 4.3 | 13.0 | 0.00 | 0.00 | 0.00 | 33 | 1013.1 |
| 20260503180730 | 59 | 10 | 4.3 | 12.2 | 0.00 | 0.00 | 0.00 | 33 | 1013.2 |
| 20260503180229 | 59 | 302 | 4.3 | 11.3 | 0.00 | 0.00 | 0.00 | 33 | 1013.2 |
| 20260503175730 | 60 | 276 | 4.3 | 10.4 | 0.00 | 0.00 | 0.00 | 33 | 1013.3 |
| 20260503175226 | 59 | 217 | 4.3 | 13.0 | 0.00 | 0.00 | 0.00 | 34 | 1013.2 |
| 20260503174727 | 59 | 36 | 4.3 | 13.0 | 0.00 | 0.00 | 0.00 | 33 | 1013.3 |
| 20260503174227 | 59 | 307 | 3.5 | 10.4 | 0.00 | 0.00 | 0.00 | 33 | 1013.5 |
| 20260503173728 | 59 | 15 | 4.3 | 9.6 | 0.00 | 0.00 | 0.00 | 34 | 1013.4 |
| 20260503173227 | 58 | 325 | 4.3 | 14.8 | 0.00 | 0.00 | 0.00 | 34 | 1013.4 |
| 20260503172728 | 58 | 309 | 4.3 | 14.8 | 0.00 | 0.00 | 0.00 | 33 | 1013.6 |
| 20260503172227 | 58 | 22 | 3.5 | 13.0 | 0.00 | 0.00 | 0.00 | 33 | 1013.6 |
| 20260503171724 | 58 | 97 | 4.3 | 13.0 | 0.00 | 0.00 | 0.00 | 34 | 1013.6 |
| 20260503171227 | 58 | 174 | 5.2 | 14.8 | 0.00 | 0.00 | 0.00 | 33 | 1013.6 |
| 20260503170725 | 58 | 68 | 3.5 | 14.8 | 0.00 | 0.00 | 0.00 | 33 | 1013.6 |
| 20260503170225 | 58 | 283 | 2.6 | 12.2 | 0.00 | 0.00 | 0.00 | 35 | 1013.5 |
| 20260503160218 | 56 | 18 | 4.3 | 12.2 | 0.00 | 0.00 | 0.00 | 35 | 1014.1 |